[[{"header":{"parameterUnit":"m.s-1","parameterCategory":1,"la1":30.2991,"la2":30.254,"lo1":-89.0895,"lo2":-89.0444,"dy":0.0017,"dx":0.0017,"nx":28,"ny":28,"refTime":"2025-11-19T03:00:00:Z","depth":0,"parameterNumber":2,"parameterNumberName":"U-component_of_WINDS"},"data":[0,0,0,0,0,0,0,0,0,0,0,0,0,0,0,0,0,0,0,0,0,0,0,0,0,0,0,0,0,0,0,0,0,0,0,0,0,0,0,0,0,0,0,0,0,0,0,0,0,0,0,0,0,0,0,0,0,0,-0.3629,-0.3628,0,-0.356,-0.356,-0.3559,-0.3483,-0.3482,-0.3481,-0.348,-0.3409,-0.3408,-0.3407,0,0,0,0,0,0,0,0,0,0,0,0,0,-0.3693,-0.3692,-0.3629,-0.3628,-0.3627,-0.3561,-0.356,-0.3559,-0.3483,-0.3482,-0.3481,-0.3479,-0.3409,-0.3408,-0.3407,0,0,0,0,0,0,0,0,0,0,0,0,0,-0.3649,-0.3692,-0.3629,-0.3582,-0.3577,-0.3561,-0.356,-0.3558,-0.3484,-0.3482,-0.348,-0.3479,-0.3409,-0.3408,-0.3407,-0.3432,0,0,-0.3403,-0.3402,0,0,0,0,0,0,0,0,-0.3651,-0.3646,-0.3589,-0.3585,-0.3579,-0.3529,-0.3556,-0.3516,-0.3484,-0.3519,-0.348,-0.3478,-0.345,-0.3445,-0.3436,-0.3428,-0.3425,-0.3403,-0.3402,-0.3401,-0.3401,0,0,0,0,0,0,0,-0.3654,-0.3649,-0.3602,-0.3589,-0.3583,-0.3563,-0.3555,-0.3548,-0.3494,-0.3516,-0.351,-0.3503,-0.3447,-0.3437,-0.3434,-0.3424,-0.3403,-0.3401,-0.3401,-0.34,-0.3431,-0.3433,0,0,0,0,0,0,-0.3665,-0.3652,-0.3604,-0.36,-0.3612,-0.3563,-0.3554,-0.3547,-0.3494,-0.3485,-0.3505,-0.35,-0.344,-0.3435,-0.3431,-0.3455,-0.3401,-0.34,-0.3399,-0.343,-0.3432,-0.3433,0,0,0,0,0,0,-0.3666,-0.3661,-0.3607,-0.3624,-0.3616,-0.3564,-0.3556,-0.3546,-0.3536,-0.3486,-0.3476,-0.3505,-0.3439,-0.3433,-0.3431,-0.3451,-0.3399,-0.3398,-0.3428,-0.343,-0.3433,-0.3505,0,0,0,0,0,0,-0.3669,-0.3662,-0.3672,-0.3625,-0.3615,-0.361,-0.3557,-0.3546,-0.3535,-0.3528,-0.3483,-0.3474,-0.3437,-0.3434,-0.343,-0.3449,-0.3397,-0.3426,-0.3429,-0.3432,-0.35,-0.3509,-0.3517,0,0,0,0,0,-0.3671,-0.3695,-0.3673,-0.3667,-0.3626,-0.3611,-0.3605,-0.3562,-0.3537,-0.3545,-0.3512,-0.3476,-0.345,-0.3434,-0.343,-0.3448,-0.3424,-0.3428,-0.3432,-0.3497,-0.3508,-0.3517,0,0,0,0,0,0,-0.3745,-0.3688,-0.3663,-0.3672,-0.3647,-0.3598,-0.3608,-0.3575,-0.3556,-0.3551,-0.3497,-0.3488,-0.3493,-0.347,-0.3454,-0.3468,-0.3432,-0.3435,-0.3483,-0.3493,-0.3501,-0.3506,-0.3396,0,0,0,0,0,-0.3763,-0.3756,-0.3706,-0.3719,-0.3708,-0.366,-0.3652,-0.3621,-0.3592,-0.3581,-0.3548,-0.3522,-0.3507,-0.3499,-0.3483,-0.3497,-0.3485,-0.3507,-0.3516,-0.3523,-0.3525,-0.3529,-0.3538,-0.3445,-0.3445,-0.3445,0,0,-0.3799,-0.3767,-0.3766,-0.3733,-0.371,-0.3703,-0.3652,-0.3647,-0.3641,-0.358,-0.3577,-0.3552,-0.3519,-0.3525,-0.3526,-0.3506,-0.3548,-0.3527,-0.3533,-0.3532,-0.3534,-0.3543,-0.355,-0.3448,-0.3447,-0.3447,0,0,-0.3861,-0.3837,-0.3844,-0.3822,-0.3787,-0.3755,-0.3757,-0.3713,-0.3694,-0.369,-0.3644,-0.3636,-0.3612,-0.359,-0.3576,-0.3628,-0.3593,-0.3624,-0.3668,-0.3672,-0.3679,-0.3685,-0.3703,-0.371,-0.3628,-0.3628,-0.3628,0,-0.391,-0.3898,-0.3852,-0.385,-0.3836,-0.3781,-0.3788,-0.3768,-0.373,-0.3722,-0.37,-0.3669,-0.3643,-0.3642,-0.3655,-0.3646,-0.3645,-0.3629,-0.3682,-0.3688,-0.3693,-0.3709,-0.3715,-0.3632,-0.3631,-0.3631,-0.363,0,-0.3959,-0.3952,-0.3962,-0.3927,-0.3914,-0.3917,-0.387,-0.3863,-0.3833,-0.3803,-0.3798,-0.3765,-0.374,-0.3738,-0.3709,-0.3733,-0.3721,-0.3692,-0.3654,-0.3706,-0.372,-0.3726,-0.3637,-0.3636,-0.3635,-0.3634,0,0,-0.4066,-0.4005,-0.4009,-0.3992,-0.3949,-0.3942,-0.3941,-0.3917,-0.3912,-0.3887,-0.3884,-0.3866,-0.3837,-0.3821,-0.3789,-0.3793,-0.3834,-0.3762,-0.3761,-0.3776,-0.3857,-0.3878,-0.3886,-0.3811,-0.3812,-0.3813,-0.3859,0,-0.4119,-0.4115,-0.4073,-0.408,-0.4072,-0.4019,-0.4018,-0.3991,-0.3963,-0.3951,-0.3919,-0.3906,-0.3871,-0.3861,-0.3863,-0.3829,-0.385,-0.3825,-0.3807,-0.3807,-0.3816,-0.3894,-0.3917,-0.3962,-0.3864,-0.3865,-0.3866,0,-0.4181,-0.416,-0.4167,-0.4122,-0.4117,-0.4117,-0.4091,-0.4081,-0.4049,-0.4028,-0.401,-0.3973,-0.3968,-0.3933,-0.3924,-0.3908,-0.3898,-0.3881,-0.3881,-0.3877,-0.3839,-0.389,-0.3975,-0.3982,-0.3874,-0.3874,-0.3873,0,-0.4257,-0.423,-0.423,-0.4217,-0.4166,-0.4167,-0.4146,-0.4112,-0.41,-0.4077,-0.4068,-0.4046,-0.4033,-0.4015,-0.3973,-0.3952,-0.3968,-0.393,-0.3949,-0.3951,-0.3955,-0.3955,-0.4038,-0.3951,-0.3951,-0.395,-0.395,0,-0.432,-0.4325,-0.4263,-0.4263,-0.4267,-0.4218,-0.4224,-0.4197,-0.4168,-0.416,-0.4114,-0.4108,-0.4052,-0.404,-0.4007,-0.4003,-0.3998,-0.398,-0.3971,-0.3984,-0.3986,-0.3975,-0.3971,-0.3952,-0.3952,-0.3951,-0.3951,0,-0.4405,-0.4363,-0.4359,-0.4311,-0.4299,-0.4304,-0.4262,-0.426,-0.4229,-0.422,-0.4215,-0.4166,-0.4149,-0.4105,-0.4076,-0.4053,-0.4059,-0.4043,-0.407,-0.4064,-0.4085,-0.4083,-0.4163,-0.417,-0.4081,-0.4081,-0.4082,0,-0.4447,-0.445,-0.4402,-0.4394,-0.4375,-0.4363,-0.435,-0.4302,-0.4291,-0.4254,-0.4255,-0.4234,-0.4215,-0.419,-0.4151,-0.4128,-0.411,-0.414,-0.4106,-0.4118,-0.4109,-0.4108,-0.4108,-0.4147,-0.4148,-0.4149,-0.415,0,-0.4526,-0.4505,-0.4489,-0.4466,-0.4452,-0.4431,-0.4407,-0.4403,-0.4349,-0.4338,-0.432,-0.4305,-0.4275,-0.4255,-0.4226,-0.4203,-0.4167,-0.4161,-0.4164,-0.4176,-0.4191,-0.4181,-0.4088,-0.4159,-0.4158,-0.4158,-0.4157,-0.4157,-0.459,-0.459,-0.4556,-0.4539,-0.4516,-0.4494,-0.4489,-0.4457,-0.4441,-0.4413,-0.4386,-0.437,-0.4336,-0.4294,-0.4273,-0.426,-0.4241,-0.4246,-0.4247,-0.4248,-0.4253,-0.4195,-0.4254,-0.4254,-0.4254,-0.4254,-0.4253,0,-0.4666,-0.4641,-0.4626,-0.4594,-0.458,-0.4549,-0.452,-0.4511,-0.4498,-0.447,-0.4451,-0.443,-0.4409,-0.4368,-0.4344,-0.434,-0.4323,-0.4335,-0.4334,-0.4329,-0.4272,-0.4271,-0.435,-0.435,-0.435,-0.435,-0.435,-0.435,-0.4703,-0.47,-0.4675,-0.466,-0.4635,-0.4619,-0.4606,-0.4585,-0.4562,-0.454,-0.4523,-0.4497,-0.4463,-0.4435,-0.4414,-0.4403,-0.4395,-0.4413,-0.4396,-0.4343,-0.4334,-0.4325,-0.4324,-0.4412,-0.4412,-0.4453,-0.4454,-0.4454]},{"header":{"parameterUnit":"m.s-1","parameterCategory":1,"la1":30.2991,"la2":30.254,"lo1":-89.0895,"lo2":-89.0444,"dy":0.0017,"dx":0.0017,"nx":28,"ny":28,"refTime":"2025-11-19T03:00:00:Z","depth":0,"parameterNumber":3,"parameterNumberName":"V-component_of_WINDS"},"data":[0,0,0,0,0,0,0,0,0,0,0,0,0,0,0,0,0,0,0,0,0,0,0,0,0,0,0,0,0,0,0,0,0,0,0,0,0,0,0,0,0,0,0,0,0,0,0,0,0,0,0,0,0,0,0,0,0,0,0.8745,0.8745,0,0.8748,0.8748,0.8748,0.8766,0.8766,0.8767,0.8767,0.8768,0.8767,0.8767,0,0,0,0,0,0,0,0,0,0,0,0,0,0.8755,0.8755,0.8745,0.8745,0.8745,0.8748,0.8748,0.8748,0.8766,0.8766,0.8767,0.8767,0.8768,0.8767,0.8767,0,0,0,0,0,0,0,0,0,0,0,0,0,0.8753,0.8755,0.8745,0.8755,0.8755,0.8748,0.8748,0.8748,0.8766,0.8766,0.8767,0.8768,0.8768,0.8767,0.8767,0.8749,0,0,0.8765,0.8765,0,0,0,0,0,0,0,0,0.8753,0.8753,0.8753,0.8754,0.8755,0.8757,0.8751,0.8748,0.8765,0.8762,0.8767,0.8768,0.8763,0.8763,0.8762,0.875,0.875,0.8765,0.8764,0.8764,0.8764,0,0,0,0,0,0,0,0.8753,0.8753,0.8746,0.8753,0.8754,0.8758,0.8759,0.8751,0.8759,0.8762,0.8763,0.8763,0.8764,0.8763,0.8762,0.875,0.8765,0.8764,0.8764,0.8764,0.8724,0.8723,0,0,0,0,0,0,0.8752,0.8753,0.8746,0.8746,0.8756,0.8758,0.8758,0.8756,0.8759,0.876,0.8763,0.8764,0.8763,0.8763,0.8762,0.8743,0.8764,0.8764,0.8763,0.8724,0.8724,0.8723,0,0,0,0,0,0,0.8753,0.8752,0.8746,0.875,0.875,0.8757,0.8754,0.8755,0.8754,0.876,0.8761,0.876,0.8764,0.8763,0.8753,0.8743,0.8763,0.8763,0.8725,0.8724,0.8723,0.8703,0,0,0,0,0,0,0.8753,0.8752,0.8745,0.875,0.8749,0.8737,0.8753,0.8755,0.8753,0.8755,0.8757,0.8758,0.8764,0.8754,0.8752,0.8743,0.8762,0.8726,0.8725,0.8724,0.8705,0.8702,0.8699,0,0,0,0,0,0.8753,0.8739,0.8745,0.8744,0.8742,0.8736,0.8736,0.8744,0.8752,0.8746,0.875,0.8758,0.8745,0.8752,0.8751,0.8741,0.8727,0.8725,0.8724,0.8706,0.8702,0.8699,0,0,0,0,0,0,0.8732,0.874,0.8746,0.8733,0.8734,0.8739,0.8731,0.8739,0.8737,0.8739,0.8748,0.8748,0.8736,0.8738,0.8746,0.8725,0.8737,0.8735,0.8725,0.8721,0.8718,0.8718,0.8762,0,0,0,0,0,0.8727,0.8722,0.8728,0.8716,0.8717,0.8724,0.8722,0.8728,0.8729,0.8729,0.8732,0.8732,0.8727,0.8724,0.8721,0.8706,0.8706,0.8698,0.8695,0.8693,0.8691,0.8683,0.868,0.8718,0.8718,0.8718,0,0,0.8714,0.8717,0.8714,0.8712,0.8714,0.8708,0.8724,0.8717,0.8713,0.8728,0.8718,0.872,0.8721,0.8708,0.8703,0.8709,0.8681,0.8691,0.8689,0.8688,0.8681,0.8678,0.8675,0.8717,0.8717,0.8717,0,0,0.8688,0.8691,0.8681,0.8682,0.8684,0.869,0.8687,0.8692,0.8694,0.8685,0.8695,0.8691,0.8683,0.8683,0.8683,0.8658,0.8666,0.8657,0.8641,0.8634,0.8631,0.8629,0.862,0.8617,0.8655,0.8655,0.8655,0,0.8672,0.8665,0.8675,0.8668,0.8667,0.8681,0.8671,0.8672,0.8672,0.8671,0.8678,0.867,0.8671,0.8659,0.8653,0.8652,0.865,0.8656,0.8631,0.8628,0.8626,0.8618,0.8615,0.8654,0.8654,0.8654,0.8654,0,0.8645,0.864,0.8632,0.8634,0.8632,0.8623,0.8632,0.8629,0.8636,0.864,0.8631,0.8633,0.8631,0.8628,0.8634,0.8617,0.8621,0.8629,0.8642,0.8621,0.8614,0.8611,0.8652,0.8653,0.8653,0.8653,0,0,0.8606,0.8613,0.861,0.8611,0.8615,0.8611,0.8604,0.8602,0.86,0.86,0.8594,0.8588,0.8596,0.8595,0.8601,0.8595,0.8576,0.8604,0.8604,0.8599,0.8557,0.8551,0.8547,0.8581,0.8581,0.858,0.8557,0,0.8581,0.8569,0.8579,0.8565,0.8561,0.8574,0.8568,0.8569,0.8573,0.857,0.8574,0.857,0.8581,0.8581,0.8575,0.8579,0.8567,0.8581,0.8575,0.8575,0.8574,0.8543,0.8536,0.8514,0.8554,0.8554,0.8554,0,0.8551,0.8551,0.8537,0.8543,0.8541,0.8535,0.8535,0.8532,0.8534,0.8537,0.8537,0.8545,0.8538,0.8551,0.8541,0.855,0.8548,0.855,0.855,0.8549,0.8563,0.8542,0.8508,0.8504,0.8549,0.855,0.855,0,0.8523,0.852,0.8511,0.8512,0.8518,0.8514,0.8516,0.8519,0.8518,0.8517,0.8517,0.8515,0.8514,0.8513,0.852,0.8529,0.851,0.8523,0.8512,0.8512,0.8507,0.8507,0.8472,0.8506,0.8506,0.8506,0.8506,0,0.8495,0.8486,0.8499,0.8494,0.8484,0.8495,0.8485,0.8489,0.8492,0.8487,0.8499,0.8494,0.8505,0.8501,0.8507,0.8498,0.8498,0.85,0.8502,0.8499,0.8499,0.8498,0.8499,0.8506,0.8506,0.8506,0.8506,0,0.8462,0.8471,0.8463,0.847,0.8471,0.8464,0.847,0.8465,0.8471,0.8465,0.8464,0.8473,0.8469,0.8477,0.8474,0.8478,0.8466,0.847,0.8466,0.8467,0.8456,0.8457,0.8419,0.8414,0.8451,0.8451,0.8451,0,0.8443,0.8437,0.8444,0.8442,0.8444,0.8441,0.844,0.8451,0.8449,0.8452,0.8447,0.8445,0.8444,0.8437,0.8443,0.8441,0.8445,0.8432,0.8445,0.8443,0.8445,0.8445,0.8445,0.8429,0.8429,0.8428,0.8428,0,0.8409,0.8414,0.8413,0.8413,0.8412,0.8412,0.8414,0.8411,0.8423,0.842,0.8418,0.8417,0.8415,0.8412,0.8412,0.8414,0.8423,0.8424,0.8422,0.8419,0.8416,0.8418,0.8458,0.8425,0.8425,0.8425,0.8426,0.8426,0.8383,0.8378,0.8383,0.8381,0.8383,0.8384,0.8381,0.8386,0.8384,0.8384,0.839,0.8386,0.8389,0.839,0.8391,0.8388,0.8394,0.839,0.8389,0.8388,0.8387,0.8417,0.8388,0.8388,0.8388,0.8388,0.8388,0,0.8349,0.8353,0.8352,0.8354,0.8352,0.8362,0.8364,0.8362,0.8358,0.8361,0.836,0.8357,0.8355,0.8361,0.836,0.8356,0.836,0.8356,0.8356,0.8356,0.8381,0.8384,0.8352,0.8352,0.8352,0.8352,0.8352,0.8352,0.8332,0.8324,0.833,0.8324,0.8328,0.8325,0.8325,0.8326,0.8328,0.8325,0.8324,0.8328,0.8332,0.8331,0.833,0.8332,0.8331,0.8325,0.8328,0.8351,0.8354,0.8358,0.836,0.8324,0.8324,0.8303,0.8303,0.8303]}]]